Vorticity
nan nan nan nan nan nan nan nan nan nan nan nan nan nan nan nan nan nan nan nan nan nan nan nan nan nan nan nan nan nan nan nan nan nan nan nan nan nan nan nan nan nan nan nan nan nan nan nan nan
nan 3 7 8 5 5 8 8 5 4 6 7 7 7 5 6 12 12 10 11 6 4 5 9 9 5 4 5 4 4 5 6 5 5 5 5 4 5 6 6 6 6 6 7 7 7 7 7 nan
nan 5 7 8 5 4 8 7 7 4 5 7 4 8 9 7 11 7 8 10 5 4 7 11 8 5 5 5 3 5 6 6 5 5 4 4 5 6 6 6 6 7 8 9 8 7 7 8 nan
nan 4 8 9 4 4 7 6 6 9 7 6 5 5 9 9 10 12 10 4 5 5 8 11 7 5 5 5 5 5 5 5 5 5 5 5 6 7 6 6 7 7 7 7 6 6 8 9 nan
nan 8 8 5 6 6 9 10 7 3 5 4 9 8 4 11 15 10 5 5 4 4 7 10 9 5 6 4 6 6 5 5 5 5 5 5 6 6 6 7 6 5 5 4 6 10 13 11 nan
nan 8 4 7 8 7 12 6 4 8 5 8 8 7 8 11 7 5 5 6 5 5 6 9 8 5 6 5 5 6 5 5 5 5 5 6 7 6 6 5 4 5 5 6 9 15 14 7 nan
nan 8 7 5 6 10 8 7 7 9 6 5 8 7 7 7 8 8 6 7 6 6 7 8 9 8 5 4 6 5 4 5 5 5 5 5 6 6 6 4 3 4 7 13 12 10 10 7 nan
nan 7 7 6 6 10 8 6 8 7 9 7 9 7 9 12 8 6 6 6 7 7 7 7 7 7 6 7 6 5 5 5 5 5 4 3 3 4 4 4 3 4 10 16 14 5 4 5 nan
nan 6 7 7 7 7 8 5 7 7 6 7 8 13 19 13 4 4 4 6 6 4 5 7 6 8 7 7 7 7 5 4 4 4 3 3 4 3 4 4 5 5 9 15 15 6 4 4 nan
nan 8 9 5 5 9 9 6 5 8 5 5 7 16 15 4 4 3 4 6 4 5 4 6 7 6 5 6 7 6 5 5 6 6 5 5 6 5 4 4 4 4 6 9 9 1 -0 2 nan
nan 4 6 8 11 12 7 5 9 6 6 9 11 9 5 2 2 6 6 7 6 4 6 7 7 5 4 6 6 6 7 7 7 7 5 5 5 7 7 6 5 4 3 5 3 3 4 6 nan
nan 9 8 9 12 9 10 7 8 4 3 15 17 8 4 4 6 4 6 9 7 6 7 7 8 6 4 6 7 7 6 7 7 7 7 6 6 8 7 7 8 9 6 7 7 7 7 6 nan
nan 8 7 9 8 9 7 6 7 4 8 16 13 6 9 6 7 8 9 7 8 9 7 7 7 6 5 5 7 8 8 7 7 7 8 8 7 7 7 8 9 9 9 7 8 8 7 7 nan
nan 7 7 11 9 6 5 8 7 5 10 10 8 4 6 12 9 8 9 8 6 7 8 8 7 6 6 7 7 7 7 7 7 8 10 8 8 7 8 8 7 8 9 9 9 8 7 7 nan
nan 12 12 6 12 8 4 3 7 12 12 7 2 5 8 9 11 11 9 8 7 6 9 8 6 7 8 7 6 7 7 8 7 8 9 9 8 8 8 8 7 7 8 8 8 8 8 7 nan
nan 11 8 6 11 12 8 -1 8 15 12 7 5 3 5 7 8 7 12 12 9 10 9 7 8 8 7 8 8 8 8 8 8 8 8 9 8 8 8 8 7 7 7 7 7 7 7 8 nan
nan 9 3 9 10 9 9 12 8 5 10 9 6 4 3 6 8 8 8 13 13 11 10 8 9 9 9 8 9 9 9 8 8 8 8 9 8 9 8 8 9 9 7 8 7 8 8 8 nan
nan 7 8 6 4 11 10 11 9 9 7 6 6 7 6 6 6 7 8 13 13 10 10 9 10 9 9 7 7 8 9 8 9 8 8 7 8 8 7 8 8 7 9 9 8 8 8 10 nan
nan 8 7 9 10 7 8 8 6 10 8 8 7 8 5 8 9 7 9 10 8 9 10 9 8 8 7 7 6 7 9 7 7 8 9 9 9 8 7 7 7 8 8 8 8 8 8 8 nan
nan 10 6 8 11 8 10 4 7 9 11 9 6 8 8 10 7 7 11 11 8 8 7 8 8 8 4 7 9 11 9 8 8 8 9 10 9 8 8 7 7 7 8 7 8 8 7 8 nan
nan 10 10 9 2 6 7 4 8 7 6 8 10 10 10 10 10 10 9 9 11 9 8 8 8 6 7 7 6 7 8 9 8 8 9 10 9 7 7 6 8 7 7 7 7 9 8 7 nan
nan 12 11 7 8 8 3 10 8 11 5 8 7 7 9 11 10 8 9 10 9 8 8 8 8 7 8 6 6 7 7 7 8 9 9 9 8 8 7 8 7 7 7 8 8 8 8 9 nan
nan 11 10 7 8 8 7 12 11 12 12 11 9 8 10 10 8 8 8 10 11 10 9 8 8 7 7 7 6 7 7 7 9 9 9 8 9 9 8 8 7 7 7 8 9 8 8 7 nan
nan 1 6 11 9 7 12 8 10 10 10 9 9 10 9 9 8 9 11 10 10 9 8 9 7 7 10 8 7 7 6 6 6 7 8 9 8 9 9 9 8 8 8 8 9 9 9 8 nan
nan 6 7 6 11 9 7 8 11 7 17 16 9 7 8 8 8 7 9 9 9 8 7 8 8 6 8 9 8 8 8 8 8 7 8 8 7 9 10 9 7 8 8 9 9 9 9 9 nan
nan 11 10 10 6 7 8 8 12 14 11 9 13 12 11 9 8 8 8 8 7 9 9 7 7 10 9 8 8 8 9 8 8 8 8 8 8 9 10 9 9 8 8 8 8 8 9 9 nan
nan 9 11 5 10 12 6 6 9 15 11 10 8 8 8 8 8 7 6 9 11 10 10 8 8 10 10 8 9 9 9 8 7 8 8 8 8 9 10 10 9 9 9 9 8 8 9 9 nan
nan 7 6 11 14 6 9 12 9 7 9 9 8 7 7 8 8 9 9 9 9 9 10 10 10 8 8 8 8 8 8 6 8 10 11 8 9 9 9 9 9 9 9 9 8 8 10 8 nan
nan 8 11 14 9 10 9 10 12 6 12 10 5 13 13 10 9 8 8 9 9 10 11 9 8 8 8 9 9 9 9 8 9 9 7 9 10 11 9 9 9 9 10 9 8 7 8 9 nan
nan nan nan nan nan nan nan nan nan nan nan nan nan nan nan nan nan nan nan nan nan nan nan nan nan nan nan nan nan nan nan nan nan nan nan nan nan nan nan nan nan nan nan nan nan nan nan nan nan
CAPE
6 0 0 0 0 0 0 9 1 60 40 34 43 72 40 308 56 0 44 387 506 544 565 592 809 404 317 751 927 780 650 389 215 125 96 79 86 64 16 0 0 0 0 0 0 0 0 0 0
0 0 0 0 0 0 0 0 230 148 227 95 119 69 73 730 591 441 699 648 544 524 362 410 727 397 508 967 845 670 395 149 100 87 69 89 38 17 0 0 0 0 0 0 0 0 0 0 377
0 0 0 0 0 0 0 66 250 130 236 286 377 149 202 542 555 413 624 671 597 400 348 377 570 527 912 1136 1099 563 139 85 88 75 78 55 26 0 0 0 0 0 0 0 0 0 0 46 515
0 0 0 0 0 0 0 152 70 55 11 182 461 342 789 756 716 710 706 625 455 376 354 888 709 956 1406 1279 737 213 115 88 92 74 65 38 11 0 0 0 0 0 0 1 0 0 0 306 806
0 0 0 0 0 0 0 106 45 165 53 51 430 625 808 1059 875 731 596 440 366 273 387 508 761 1122 1536 1054 505 185 124 111 110 114 75 31 21 1 0 0 0 0 0 0 0 22 60 541 693
0 0 0 0 0 0 65 90 55 95 0 47 692 633 856 937 798 564 396 278 318 374 406 489 771 1247 1573 946 445 179 124 104 152 90 77 14 10 0 0 0 0 0 0 0 0 484 400 615 456
0 0 0 0 0 0 115 43 75 20 0 14 162 497 992 1013 652 387 225 195 402 452 332 306 535 1155 1427 971 398 211 134 90 146 84 88 23 0 0 0 0 0 0 0 0 45 656 623 478 294
0 0 0 0 0 0 26 24 12 19 9 0 102 507 1037 984 618 284 220 245 380 403 225 134 477 950 899 746 405 200 125 97 122 127 102 60 50 1 0 0 14 0 1 43 248 619 553 463 378
0 0 0 0 0 0 45 40 62 67 32 79 354 196 616 788 474 384 348 362 355 386 182 111 458 1005 680 454 308 291 158 139 108 102 124 18 0 0 0 3 24 44 0 184 561 658 380 268 252
0 0 0 0 0 0 75 45 95 92 19 77 437 912 955 720 648 556 451 348 330 418 234 137 498 908 550 604 249 79 47 16 6 7 22 0 0 2 0 0 4 1 0 117 547 478 116 16 6
0 0 0 0 0 0 36 76 109 48 47 174 278 903 909 860 846 778 687 493 408 432 376 155 526 658 463 345 111 29 7 0 0 0 0 0 0 0 0 0 0 0 0 0 0 0 0 0 0
0 0 0 0 0 0 32 20 110 33 61 95 205 775 831 999 966 917 804 616 419 494 357 184 576 585 382 198 130 51 20 0 0 0 0 0 0 0 0 0 0 0 0 0 0 0 0 0 0
0 0 0 0 0 0 0 15 41 27 320 390 427 665 809 955 970 1023 918 833 498 461 302 186 534 545 443 200 142 46 14 8 0 0 0 0 0 0 0 0 0 0 0 0 0 0 0 0 0
0 0 0 0 0 0 0 0 22 72 433 523 491 649 596 661 737 921 887 862 639 449 296 88 388 683 484 221 114 31 0 2 0 0 0 0 0 0 0 0 0 0 0 0 0 0 0 0 0
0 0 0 0 0 0 0 0 0 8 499 597 697 764 232 152 340 470 415 806 764 598 335 109 138 591 478 270 100 12 0 9 0 0 0 0 0 0 0 0 0 0 0 0 0 0 0 0 0
0 0 0 0 0 0 0 0 0 207 522 630 658 240 57 28 57 115 89 113 678 691 399 222 145 372 363 197 80 36 22 2 0 0 0 0 0 0 0 0 0 0 0 0 0 0 0 0 0
0 0 0 0 0 0 0 0 0 123 330 474 408 140 56 89 11 61 139 222 369 497 410 259 112 201 216 83 29 9 0 0 0 0 0 0 0 0 0 0 0 0 0 0 0 0 0 0 0
0 0 0 0 0 0 0 0 11 132 213 391 377 273 135 119 29 309 351 268 175 270 267 225 213 103 41 0 0 0 0 0 0 0 0 0 0 0 0 0 0 0 0 0 0 0 0 0 0
0 0 0 0 0 0 0 0 0 0 95 101 319 387 256 121 58 553 373 429 309 496 446 308 174 6 3 0 0 0 0 0 0 0 0 0 0 0 0 0 0 0 0 0 0 0 0 0 0
0 0 0 0 0 0 0 0 0 0 0 10 26 36 28 0 0 42 833 556 360 506 452 248 74 0 0 0 0 0 0 0 0 0 0 0 0 0 0 0 0 0 0 0 0 0 0 0 0
0 0 0 0 0 0 0 0 0 0 0 0 6 22 85 181 18 0 770 705 333 520 567 260 8 0 0 0 0 0 0 0 0 0 0 0 0 0 0 0 0 0 0 0 0 0 0 0 0
0 0 0 0 0 0 0 0 0 0 0 0 0 42 315 156 0 60 664 702 381 446 515 304 82 1 0 0 0 0 0 0 0 0 0 0 0 0 0 0 0 0 0 0 0 0 0 0 0
0 0 0 0 0 0 0 0 0 0 0 0 0 34 334 370 6 584 1122 708 427 502 546 471 225 33 0 0 0 0 0 0 0 0 0 0 0 0 0 0 0 0 0 0 0 0 0 0 0
0 0 0 0 0 0 0 0 0 0 0 0 0 45 599 1024 1153 1231 1142 665 520 548 458 460 397 184 3 0 0 0 0 0 0 0 0 0 0 0 0 0 0 0 0 0 0 0 0 0 0
0 0 0 0 0 0 0 0 0 0 0 0 0 112 651 1239 1365 1390 1072 822 673 747 554 361 561 528 73 9 0 0 0 0 0 0 0 0 0 0 0 0 0 0 0 0 0 0 0 0 0
0 0 0 0 0 0 0 0 0 0 0 0 0 4 470 1297 1142 1217 1130 815 826 820 660 640 520 472 174 81 46 0 0 0 0 0 0 0 0 0 0 0 0 0 0 0 0 0 0 0 0
0 0 0 0 0 0 0 0 0 0 0 0 0 0 266 1054 928 1068 946 755 753 810 735 764 616 456 352 226 108 57 6 0 0 0 0 0 0 0 0 0 0 0 0 0 0 0 0 0 0
0 0 0 0 0 0 0 0 0 0 0 0 0 37 61 457 476 530 783 818 694 728 679 540 436 538 475 406 293 224 77 0 0 0 0 0 0 0 0 0 0 0 0 0 0 0 0 0 0
0 0 0 0 0 0 0 0 0 0 0 0 0 0 43 277 208 36 301 696 662 603 571 448 483 545 422 442 370 314 219 114 34 2 0 0 0 0 0 0 0 0 0 0 0 0 0 0 0
0 0 0 0 0 0 0 0 0 0 0 0 0 0 0 54 213 31 9 206 583 637 452 565 541 544 501 542 679 675 623 276 111 42 6 0 23 6 10 0 0 0 0 0 0 0 0 0 0